Location: Hains Lake
(37.8540°N, 99.8578°W)
Time: 03:18:00
(UTC+00:00)

Transit 2A - Pass Details

Date: 24 April 2021
Orbit: 602 x 957 km, 66.7° (Epoch: 13 May)

Event Time Altitude Azimuth Distance (km) Brightness Sun altitude
Rises 12:10:57 0° 200° (SSW) 3,132 8.8 2.8°
Reaches altitude 10° 12:13:24 10° 198° (SSW) 2,160 8.1 3.3°
Maximum altitude 12:18:13 68° 116° (ESE) 710 6.2 4.2°
Drops below altitude 10° 12:22:41 10° 34° (NNE) 2,005 9.0 5.1°
Sets 12:24:53 0° 31° (NNE) 2,889 9.7 5.5°
